Location: Ku?niki
(51.4449°N, 17.8974°E)
Time: 03:45:19
(UTC+00:00)

ISS - Visible Passes

Search period start: 27 January 2022 00:00
Search period end: 06 February 2022 00:00
Orbit: 413 x 422 km, 51.6° (Epoch: 26 January)

Date Brightness Start Highest point End Pass type
(mag) Time Alt. Az. Time Alt. Az. Time Alt. Az.
27 Jan -3.8 16:29:38 10° W 16:32:58 90° SE 16:35:35 16° E visible
27 Jan -2.2 18:06:25 10° W 18:08:30 35° W 18:08:30 35° W visible
28 Jan -3.9 17:18:20 10° W 17:21:41 90° NNW 17:22:26 51° E visible
28 Jan -0.2 18:55:10 10° W 18:55:22 11° W 18:55:22 11° W visible
29 Jan -3.8 16:30:15 10° W 16:33:35 85° N 16:36:23 14° E visible
29 Jan -2.3 18:07:02 10° W 18:09:19 36° WSW 18:09:19 36° WSW visible
30 Jan -3.6 17:18:55 10° W 17:22:14 67° SSW 17:23:19 38° SE visible
30 Jan -0.3 18:56:04 10° W 18:56:15 11° W 18:56:15 11° W visible
31 Jan -3.7 16:30:48 10° W 16:34:09 81° SSW 16:37:23 11° ESE visible
31 Jan -2.0 18:07:43 10° W 18:10:20 28° SW 18:10:20 28° SW visible
01 Feb -2.6 17:19:30 10° W 17:22:38 39° SSW 17:24:29 20° SSE visible
02 Feb -3.0 16:31:19 10° W 16:34:34 53° SSW 16:37:50 10° SE visible
02 Feb -1.1 18:08:53 10° WSW 18:10:48 15° SW 18:11:43 13° SSW visible
03 Feb -1.4 17:20:16 10° W 17:22:51 21° SW 17:25:25 10° SSE visible
04 Feb -1.8 16:31:53 10° W 16:34:50 29° SSW 16:37:46 10° SSE visible
